KUIPER-00145

导读

KUIPER-00174是美国亚马逊“柯伊伯计划”中的一颗近地轨道互联网卫星,于2025年9月25日发射升空。该计划旨在构建全球卫星互联网系统,计划部署超3200颗卫星,挑战星链的市场主导地位。KUIPER-00174这类卫星配备星间激光通信终端,可实现高速数据传输,为偏远地区、航空海运等提供宽带接入,助力完成第一代星座部署要求。

基本信息
目录编号:
65787
目录名称:
KUIPER-00174
国际标识:
2025-217AB
轨道中心:
EARTH
卫星名称:
KUIPER-00174
卫星全名:
KUIPER-00145
卫星状态:
在轨 (已飞行352 天)
发射日期:
2025-09-25 UTC
国别 :
美国 (US)
星等 :
--
该卫星已列入 空间交会检测服务 Space Conjunction Data Service (SCDS) ,当前飞行风险评估等级: 无高风险
轨道信息
数据来源 国际轨道数据 AOE轨道数据
星历时间 2026-09-11T17:45:20+0800
19小时前
查看轨道信息
2026-09-09T08:00:00+0800
3天前
查看轨道信息
半长轴 7007.696km 7007.705km
偏心率 0.0000704 0.0000925
轨道倾角 51.904° 51.901°
近地点辐角 68.417° 67.661°
升交点赤经 286.940° 297.585°
平近点角 291.687° 63.632°
近地点 629.065km 628.919km
远地点 630.053km 630.217km
周期 97.302分钟 97.302分钟
每日圈数 14.799259 14.79923
详细信息
使用方式:
暂无
2D轨道图
3D轨道图
轨道高度分析图
轨道倾角分析图
轨道综合分析图
查看轨道综合分析图
交会数据列表
事件ID 空间交会对象 最接近时刻(TCA) 交会距离 交会风险概率(CRP) 交会风险指数(CRI) 操作
CDM_260912-213605-506006-578724
2026-09-12T
21:36:46+0000
1.709 km
极远距离
2.784471E-6 低风险 0.44
与全量物体交会距离演化趋势
与全量物体交会风险概率演化趋势